4P/Faye (2006)

Japanese version
Home page
Total 6,336 html files since Dec. 4, 1995
Updated on December 25, 2007

---------------------------------------------------------------------

* Profile

* Pictures

* Orbital Elements

Epoch 2006 Nov. 1.0 TT = JDT 2454040.5
T 2006 Nov. 15.4542 TT                                  MPCN
q   1.667350             (2000.0)            P               Q
n   0.1305749      Peri.  205.0158      +0.7171343      -0.6949995
a   3.847951       Node   199.3081      +0.6629233      +0.7032241
e   0.566691       Incl.    9.0316      +0.2150608      +0.1498382
P   7.55
From 459 observations 1984-2000, mean residual 1".0.  Nongravitational
     parameters A1 = +0.64, A2 = -0.0145.

* Finding Charts

* Magnitudes Graph

        m1 =   4.7 + 5 log d + 25   log r  [   ,180]  (             - 2007 May  14)
        m1 =  10.3 + 5 log d + 10.0 log r  [180,   ]  (2007 May  14 -             )

---------------------------------------------------------------------

The orbital elements are published at the MPC Ephemerides and Orbital Elements.
The charts are made with StellaNavigator Ver.2.0 for Windows (AstroArts / ASCII).
The magnitudes graphs are made with Comet for Windows.

---------------------------------------------------------------------

Copyright(C) 1995-2008 Seiichi Yoshida (comet@aerith.net). All rights reserved.